Time,TemperatureF,DewpointF,PressureIn,WindDirection,WindDirectionDegrees,WindSpeedMPH,WindSpeedGustMPH,Humidity,HourlyPrecipIn,Conditions,Clouds,dailyrainin,SoftwareType,DateUTC
2013-05-28 00:03:00,58.0,44.0,30.14,SW,234,0.0,0.0,59,0.00,,,0.00,,2013-05-28 04:03:00,
2013-05-28 00:13:00,58.0,44.0,30.14,SW,234,0.0,0.0,59,0.00,,,0.00,,2013-05-28 04:13:00,
2013-05-28 00:22:00,58.0,44.0,30.14,SW,234,0.0,0.0,59,0.00,,,0.00,,2013-05-28 04:22:00,
2013-05-28 00:33:00,57.0,44.0,30.14,SW,234,0.0,0.0,61,0.00,,,0.00,,2013-05-28 04:33:00,
2013-05-28 00:43:00,57.0,44.0,30.14,SW,234,0.0,0.0,61,0.00,,,0.00,,2013-05-28 04:43:00,
2013-05-28 00:52:00,56.0,43.0,30.15,SW,234,0.0,0.0,62,0.00,,,0.00,,2013-05-28 04:52:00,
2013-05-28 01:02:00,56.0,44.0,30.15,SW,234,0.0,0.0,65,0.00,,,0.00,,2013-05-28 05:02:00,
2013-05-28 01:12:00,56.0,44.0,30.15,SW,234,0.0,0.0,65,0.00,,,0.00,,2013-05-28 05:12:00,
2013-05-28 01:22:00,55.0,44.0,30.16,SW,234,0.0,0.0,66,0.00,,,0.00,,2013-05-28 05:22:00,
2013-05-28 01:33:00,54.0,43.0,30.16,SW,234,0.0,0.0,67,0.00,,,0.00,,2013-05-28 05:33:00,
2013-05-28 01:42:00,54.0,43.0,30.16,SW,234,0.0,0.0,67,0.00,,,0.00,,2013-05-28 05:42:00,
2013-05-28 01:52:00,54.0,43.0,30.16,SW,234,0.0,0.0,67,0.00,,,0.00,,2013-05-28 05:52:00,
2013-05-28 02:02:00,53.0,43.0,30.16,SW,234,0.0,0.0,70,0.00,,,0.00,,2013-05-28 06:02:00,
2013-05-28 02:12:00,53.0,43.0,30.16,SW,234,0.0,0.0,70,0.00,,,0.00,,2013-05-28 06:12:00,
2013-05-28 02:21:00,53.0,44.0,30.16,SW,234,0.0,0.0,72,0.00,,,0.00,,2013-05-28 06:21:00,
2013-05-28 02:32:00,52.0,44.0,30.16,SW,234,0.0,0.0,73,0.00,,,0.00,,2013-05-28 06:32:00,
2013-05-28 02:42:00,52.0,44.0,30.16,SW,234,0.0,0.0,73,0.00,,,0.00,,2013-05-28 06:42:00,
2013-05-28 02:51:00,52.0,44.0,30.16,SW,234,0.0,0.0,74,0.00,,,0.00,,2013-05-28 06:51:00,
2013-05-28 03:01:00,51.0,43.0,30.16,SW,234,0.0,0.0,75,0.00,,,0.00,,2013-05-28 07:01:00,
2013-05-28 03:11:00,51.0,43.0,30.16,SW,234,0.0,0.0,75,0.00,,,0.00,,2013-05-28 07:11:00,
2013-05-28 03:21:00,51.0,44.0,30.16,SW,234,0.0,0.0,76,0.00,,,0.00,,2013-05-28 07:21:00,
2013-05-28 03:32:00,51.0,44.0,30.16,SW,234,0.0,0.0,78,0.00,,,0.00,,2013-05-28 07:32:00,
2013-05-28 03:42:00,51.0,44.0,30.16,SW,234,0.0,0.0,78,0.00,,,0.00,,2013-05-28 07:42:00,
2013-05-28 03:52:00,51.0,44.0,30.16,SW,234,0.0,0.0,78,0.00,,,0.00,,2013-05-28 07:52:00,
2013-05-28 04:02:00,51.0,45.0,30.16,SW,234,0.0,0.0,79,0.00,,,0.00,,2013-05-28 08:02:00,
2013-05-28 04:12:00,51.0,45.0,30.16,SW,234,0.0,0.0,79,0.00,,,0.00,,2013-05-28 08:12:00,
2013-05-28 04:22:00,51.0,45.0,30.16,SW,234,0.0,0.0,80,0.00,,,0.00,,2013-05-28 08:22:00,
2013-05-28 04:32:00,50.0,44.0,30.16,SW,234,0.0,0.0,80,0.00,,,0.00,,2013-05-28 08:32:00,
2013-05-28 04:42:00,50.0,44.0,30.16,SW,234,0.0,0.0,80,0.00,,,0.00,,2013-05-28 08:42:00,
2013-05-28 04:51:00,50.0,44.0,30.16,SW,234,0.0,0.0,81,0.00,,,0.00,,2013-05-28 08:51:00,
2013-05-28 05:01:00,50.0,44.0,30.16,SW,234,0.0,0.0,81,0.00,,,0.00,,2013-05-28 09:01:00,
2013-05-28 05:11:00,50.0,44.0,30.16,SW,234,0.0,0.0,81,0.00,,,0.00,,2013-05-28 09:11:00,
2013-05-28 05:21:00,49.0,43.0,30.16,SW,234,0.0,0.0,81,0.00,,,0.00,,2013-05-28 09:21:00,
2013-05-28 05:33:00,49.0,43.0,30.16,SW,234,0.0,0.0,81,0.00,,,0.00,,2013-05-28 09:33:00,
2013-05-28 05:43:00,49.0,43.0,30.16,SW,234,0.0,0.0,81,0.00,,,0.00,,2013-05-28 09:43:00,
2013-05-28 05:53:00,49.0,44.0,30.16,SW,234,0.0,0.0,82,0.00,,,0.00,,2013-05-28 09:53:00,
2013-05-28 06:03:00,49.0,44.0,30.16,SW,234,0.0,0.0,82,0.00,,,0.00,,2013-05-28 10:03:00,
2013-05-28 06:12:00,49.0,44.0,30.16,SW,234,0.0,0.0,82,0.00,,,0.00,,2013-05-28 10:12:00,
2013-05-28 06:23:00,49.0,44.0,30.17,SW,234,0.0,0.0,82,0.00,,,0.00,,2013-05-28 10:23:00,
2013-05-28 06:32:00,49.0,44.0,30.17,SW,234,0.0,0.0,83,0.00,,,0.00,,2013-05-28 10:32:00,
2013-05-28 06:42:00,49.0,44.0,30.17,SW,234,0.0,0.0,83,0.00,,,0.00,,2013-05-28 10:42:00,
2013-05-28 06:53:00,49.0,44.0,30.17,SW,234,0.0,0.0,83,0.00,,,0.00,,2013-05-28 10:53:00,
2013-05-28 07:02:00,49.0,44.0,30.17,NE,42,0.0,2.0,84,0.00,,,0.00,,2013-05-28 11:02:00,
2013-05-28 07:11:00,49.0,44.0,30.17,NE,42,0.0,2.0,84,0.00,,,0.00,,2013-05-28 11:11:00,
2013-05-28 07:22:00,49.0,45.0,30.17,East,84,0.0,2.0,85,0.00,,,0.00,,2013-05-28 11:22:00,
2013-05-28 07:32:00,50.0,46.0,30.17,East,90,0.0,5.0,85,0.00,,,0.00,,2013-05-28 11:32:00,
2013-05-28 07:42:00,50.0,46.0,30.17,East,90,0.0,5.0,85,0.00,,,0.00,,2013-05-28 11:42:00,
2013-05-28 07:52:00,51.0,47.0,30.17,East,101,0.0,2.0,85,0.00,,,0.00,,2013-05-28 11:52:00,
2013-05-28 08:01:00,55.0,48.0,30.17,ENE,73,1.0,3.0,76,0.00,,,0.00,,2013-05-28 12:01:00,
2013-05-28 08:11:00,55.0,48.0,30.17,ENE,73,1.0,3.0,76,0.00,,,0.00,,2013-05-28 12:11:00,
2013-05-28 08:21:00,56.0,48.0,30.17,ENE,72,0.0,3.0,74,0.00,,,0.00,,2013-05-28 12:21:00,
2013-05-28 08:32:00,59.0,49.0,30.17,ENE,67,1.0,4.0,70,0.00,,,0.00,,2013-05-28 12:32:00,
2013-05-28 08:42:00,59.0,49.0,30.17,ENE,67,1.0,4.0,70,0.00,,,0.00,,2013-05-28 12:42:00,
2013-05-28 08:52:00,60.0,48.0,30.17,ENE,77,0.0,2.0,65,0.00,,,0.00,,2013-05-28 12:52:00,
2013-05-28 09:01:00,62.0,48.0,30.17,ENE,57,0.0,3.0,60,0.00,,,0.00,,2013-05-28 13:01:00,
2013-05-28 09:11:00,62.0,48.0,30.17,ENE,57,0.0,3.0,60,0.00,,,0.00,,2013-05-28 13:11:00,
2013-05-28 09:21:00,62.0,48.0,30.17,East,90,0.0,2.0,60,0.00,,,0.00,,2013-05-28 13:21:00,
2013-05-28 09:32:00,65.0,47.0,30.18,NE,56,0.0,3.0,53,0.00,,,0.00,,2013-05-28 13:32:00,
2013-05-28 09:42:00,65.0,47.0,30.18,NE,56,0.0,3.0,53,0.00,,,0.00,,2013-05-28 13:42:00,
2013-05-28 09:52:00,65.0,47.0,30.18,ESE,108,0.0,3.0,53,0.00,,,0.00,,2013-05-28 13:52:00,
2013-05-28 10:02:00,66.0,43.0,30.17,East,88,0.0,6.0,43,0.00,,,0.00,,2013-05-28 14:02:00,
2013-05-28 10:12:00,66.0,43.0,30.17,East,88,0.0,6.0,43,0.00,,,0.00,,2013-05-28 14:12:00,
2013-05-28 10:21:00,66.0,46.0,30.18,West,264,0.0,2.0,49,0.00,,,0.00,,2013-05-28 14:21:00,
2013-05-28 10:32:00,66.0,47.0,30.18,West,280,0.0,6.0,51,0.00,,,0.00,,2013-05-28 14:32:00,
2013-05-28 10:42:00,66.0,47.0,30.18,West,280,0.0,6.0,51,0.00,,,0.00,,2013-05-28 14:42:00,
2013-05-28 10:52:00,66.0,48.0,30.18,SSW,198,1.0,4.0,52,0.00,,,0.00,,2013-05-28 14:52:00,
2013-05-28 11:01:00,66.0,48.0,30.18,SSW,198,1.0,4.0,52,0.00,,,0.00,,2013-05-28 15:01:00,
2013-05-28 11:11:00,66.0,48.0,30.18,SSW,198,1.0,4.0,52,0.00,,,0.00,,2013-05-28 15:11:00,
2013-05-28 11:21:00,66.0,49.0,30.18,South,170,0.0,4.0,55,0.00,,,0.00,,2013-05-28 15:21:00,
2013-05-28 11:33:00,65.0,49.0,30.18,SSW,211,1.0,4.0,57,0.00,,,0.00,,2013-05-28 15:33:00,
2013-05-28 11:43:00,65.0,49.0,30.18,SSW,211,1.0,4.0,57,0.00,,,0.00,,2013-05-28 15:43:00,
2013-05-28 11:53:00,65.0,49.0,30.18,SSW,212,0.0,2.0,57,0.00,,,0.00,,2013-05-28 15:53:00,
2013-05-28 12:03:00,65.0,49.0,30.18,WNW,294,0.0,3.0,56,0.00,,,0.00,,2013-05-28 16:03:00,
2013-05-28 12:13:00,65.0,49.0,30.18,WNW,294,0.0,3.0,56,0.00,,,0.00,,2013-05-28 16:13:00,
2013-05-28 12:22:00,65.0,50.0,30.18,South,183,0.0,2.0,59,0.00,,,0.00,,2013-05-28 16:22:00,
2013-05-28 12:33:00,65.0,51.0,30.18,SSW,205,0.0,0.0,60,0.00,,,0.00,,2013-05-28 16:33:00,
2013-05-28 12:42:00,65.0,51.0,30.18,SSW,205,0.0,0.0,60,0.00,,,0.00,,2013-05-28 16:42:00,
2013-05-28 12:52:00,64.0,51.0,30.18,SW,217,0.0,3.0,62,0.00,,,0.00,,2013-05-28 16:52:00,
2013-05-28 13:02:00,64.0,51.0,30.17,SW,217,0.0,0.0,63,0.00,,,0.00,,2013-05-28 17:02:00,
2013-05-28 13:12:00,64.0,51.0,30.17,SW,217,0.0,0.0,63,0.00,,,0.00,,2013-05-28 17:12:00,
2013-05-28 13:22:00,64.0,51.0,30.17,SW,217,0.0,0.0,63,0.00,,,0.00,,2013-05-28 17:22:00,
2013-05-28 13:32:00,63.0,52.0,30.17,WSW,256,0.0,4.0,67,0.00,,,0.00,,2013-05-28 17:32:00,
2013-05-28 13:42:00,63.0,53.0,30.17,SSW,202,0.0,2.0,69,0.01,,,0.01,,2013-05-28 17:42:00,
2013-05-28 13:51:00,63.0,53.0,30.17,SSW,202,0.0,2.0,69,0.01,,,0.01,,2013-05-28 17:51:00,
2013-05-28 14:01:00,62.0,53.0,30.17,SSW,201,0.0,1.0,72,0.03,,,0.03,,2013-05-28 18:01:00,
2013-05-28 14:11:00,62.0,53.0,30.17,SSW,201,0.0,1.0,72,0.03,,,0.03,,2013-05-28 18:11:00,
2013-05-28 14:21:00,62.0,54.0,30.17,SSW,202,0.0,1.0,74,0.04,,,0.04,,2013-05-28 18:21:00,
2013-05-28 14:32:00,61.0,54.0,30.17,SSW,202,0.0,0.0,77,0.01,,,0.05,,2013-05-28 18:32:00,
2013-05-28 14:42:00,60.0,53.0,30.17,SSW,202,0.0,0.0,78,0.02,,,0.06,,2013-05-28 18:42:00,
2013-05-28 14:52:00,60.0,53.0,30.17,SSW,202,0.0,0.0,78,0.02,,,0.06,,2013-05-28 18:52:00,
2013-05-28 15:01:00,60.0,54.0,30.17,ESE,114,0.0,4.0,81,0.04,,,0.08,,2013-05-28 19:01:00,
2013-05-28 15:11:00,60.0,54.0,30.17,ESE,114,0.0,4.0,81,0.04,,,0.08,,2013-05-28 19:11:00,
2013-05-28 15:21:00,60.0,54.0,30.17,ENE,73,0.0,2.0,82,0.05,,,0.09,,2013-05-28 19:21:00,
2013-05-28 15:32:00,59.0,54.0,30.16,SW,225,0.0,2.0,84,0.01,,,0.10,,2013-05-28 19:32:00,
2013-05-28 15:42:00,59.0,54.0,30.16,SW,225,0.0,2.0,84,0.01,,,0.10,,2013-05-28 19:42:00,
2013-05-28 15:52:00,58.0,53.0,30.16,NE,49,0.0,2.0,84,0.02,,,0.11,,2013-05-28 19:52:00,
2013-05-28 16:02:00,58.0,54.0,30.16,East,85,0.0,3.0,85,0.05,,,0.14,,2013-05-28 20:02:00,
2013-05-28 16:11:00,58.0,54.0,30.16,East,85,0.0,3.0,85,0.05,,,0.14,,2013-05-28 20:11:00,
2013-05-28 16:22:00,58.0,54.0,30.17,East,85,0.0,1.0,85,0.07,,,0.16,,2013-05-28 20:22:00,
2013-05-28 16:32:00,57.0,53.0,30.17,East,92,0.0,1.0,86,0.04,,,0.20,,2013-05-28 20:32:00,
2013-05-28 16:42:00,57.0,53.0,30.17,East,92,0.0,1.0,86,0.04,,,0.20,,2013-05-28 20:42:00,
2013-05-28 16:52:00,57.0,53.0,30.16,ENE,66,0.0,2.0,87,0.05,,,0.21,,2013-05-28 20:52:00,
2013-05-28 17:02:00,57.0,53.0,30.16,ENE,70,0.0,3.0,88,0.06,,,0.22,,2013-05-28 21:02:00,
2013-05-28 17:11:00,57.0,53.0,30.15,ENE,76,0.0,4.0,88,0.06,,,0.22,,2013-05-28 21:11:00,
2013-05-28 17:21:00,57.0,53.0,30.15,ENE,76,0.0,4.0,88,0.06,,,0.22,,2013-05-28 21:21:00,
2013-05-28 17:33:00,57.0,54.0,30.15,SE,146,0.0,3.0,89,0.00,,,0.22,,2013-05-28 21:33:00,
2013-05-28 17:43:00,57.0,54.0,30.15,East,90,0.0,2.0,89,0.00,,,0.22,,2013-05-28 21:43:00,
2013-05-28 17:53:00,57.0,54.0,30.15,East,90,0.0,2.0,89,0.00,,,0.22,,2013-05-28 21:53:00,
2013-05-28 18:02:00,56.0,53.0,30.15,NE,49,0.0,2.0,90,0.00,,,0.22,,2013-05-28 22:02:00,
2013-05-28 18:13:00,56.0,53.0,30.14,NE,49,0.0,0.0,90,0.00,,,0.22,,2013-05-28 22:13:00,
2013-05-28 18:22:00,56.0,53.0,30.14,NE,49,0.0,0.0,90,0.00,,,0.22,,2013-05-28 22:22:00,
2013-05-28 18:33:00,56.0,53.0,30.14,East,80,0.0,2.0,90,0.01,,,0.23,,2013-05-28 22:33:00,
2013-05-28 18:42:00,56.0,53.0,30.13,East,80,0.0,3.0,91,0.01,,,0.23,,2013-05-28 22:42:00,
2013-05-28 18:52:00,56.0,53.0,30.13,East,80,0.0,3.0,91,0.01,,,0.23,,2013-05-28 22:52:00,
2013-05-28 19:02:00,56.0,53.0,30.13,ESE,104,1.0,4.0,91,0.01,,,0.23,,2013-05-28 23:02:00,
2013-05-28 19:11:00,56.0,53.0,30.14,East,94,0.0,2.0,91,0.01,,,0.23,,2013-05-28 23:11:00,
2013-05-28 19:22:00,56.0,53.0,30.14,East,94,0.0,2.0,91,0.01,,,0.23,,2013-05-28 23:22:00,
2013-05-28 19:32:00,56.0,53.0,30.13,East,96,0.0,2.0,91,0.01,,,0.24,,2013-05-28 23:32:00,
2013-05-28 19:42:00,56.0,53.0,30.13,East,96,0.0,2.0,91,0.01,,,0.24,,2013-05-28 23:42:00,
2013-05-28 19:52:00,56.0,54.0,30.13,ENE,77,0.0,2.0,92,0.01,,,0.24,,2013-05-28 23:52:00,
2013-05-28 20:02:00,56.0,54.0,30.12,SE,145,0.0,2.0,92,0.01,,,0.24,,2013-05-29 00:02:00,
2013-05-28 20:11:00,56.0,54.0,30.12,SE,145,0.0,2.0,92,0.01,,,0.24,,2013-05-29 00:11:00,
2013-05-28 20:21:00,56.0,54.0,30.12,SSE,159,0.0,4.0,92,0.01,,,0.24,,2013-05-29 00:21:00,
2013-05-28 20:32:00,56.0,54.0,30.12,East,101,0.0,1.0,92,0.00,,,0.24,,2013-05-29 00:32:00,
2013-05-28 20:42:00,56.0,54.0,30.12,East,101,0.0,1.0,92,0.00,,,0.24,,2013-05-29 00:42:00,
2013-05-28 20:52:00,56.0,54.0,30.11,SSE,153,0.0,2.0,92,0.00,,,0.24,,2013-05-29 00:52:00,
2013-05-28 21:01:00,56.0,54.0,30.11,SW,231,0.0,1.0,92,0.00,,,0.24,,2013-05-29 01:01:00,
2013-05-28 21:11:00,56.0,54.0,30.11,SW,231,0.0,1.0,92,0.00,,,0.24,,2013-05-29 01:11:00,
2013-05-28 21:22:00,56.0,54.0,30.11,NNE,31,0.0,1.0,92,0.00,,,0.24,,2013-05-29 01:22:00,
2013-05-28 21:32:00,56.0,54.0,30.12,NNE,31,0.0,0.0,92,0.00,,,0.24,,2013-05-29 01:32:00,
2013-05-28 21:42:00,56.0,54.0,30.12,NNE,31,0.0,0.0,92,0.00,,,0.24,,2013-05-29 01:42:00,
2013-05-28 21:52:00,56.0,54.0,30.12,NNE,31,0.0,0.0,93,0.00,,,0.24,,2013-05-29 01:52:00,
2013-05-28 22:02:00,57.0,55.0,30.12,ESE,123,0.0,2.0,93,0.00,,,0.24,,2013-05-29 02:02:00,
2013-05-28 22:12:00,57.0,55.0,30.12,ESE,123,0.0,0.0,93,0.00,,,0.24,,2013-05-29 02:12:00,
2013-05-28 22:21:00,57.0,55.0,30.12,ESE,123,0.0,0.0,93,0.00,,,0.24,,2013-05-29 02:21:00,
2013-05-28 22:32:00,57.0,55.0,30.12,SSW,204,0.0,1.0,93,0.00,,,0.24,,2013-05-29 02:32:00,
2013-05-28 22:42:00,57.0,55.0,30.11,SW,223,0.0,0.0,93,0.00,,,0.24,,2013-05-29 02:42:00,
2013-05-28 22:52:00,57.0,55.0,30.11,SW,223,0.0,0.0,93,0.00,,,0.24,,2013-05-29 02:52:00,
2013-05-28 23:02:00,57.0,55.0,30.11,SW,223,0.0,0.0,93,0.00,,,0.24,,2013-05-29 03:02:00,
2013-05-28 23:12:00,57.0,55.0,30.11,SW,223,0.0,0.0,93,0.00,,,0.24,,2013-05-29 03:12:00,
2013-05-28 23:21:00,57.0,55.0,30.11,SW,223,0.0,0.0,93,0.00,,,0.24,,2013-05-29 03:21:00,
2013-05-28 23:33:00,57.0,55.0,30.11,SW,223,0.0,1.0,93,0.01,,,0.25,,2013-05-29 03:33:00,
2013-05-28 23:43:00,57.0,55.0,30.11,SW,223,0.0,1.0,93,0.01,,,0.25,,2013-05-29 03:43:00,
2013-05-28 23:53:00,57.0,55.0,30.10,East,88,0.0,2.0,93,0.01,,,0.25,,2013-05-29 03:53:00,